Tracking 19149 objects as of 19-Apr-2018
HD Live streaming from Space Station
objects crossing your sky now

FLOCK 2EP-5

Track FLOCK 2EP-5 now!
10-day predictions
FLOCK 2EP-5 is classified as:


NORAD ID: 41567
Int'l Code: 1998-067JT
Perigee: 331.3 km
Apogee: 336.9 km
Inclination: 51.6 °
Period: 91.1 minutes
Semi major axis: 6705 km
RCS: Unknown
Launch date: November 20, 1998
Source: United States (US)
Launch site: ()
aabbcc
Your satellite tracking list
Your tracking list is empty




NASA's NSSDC Master Catalog

Two Line Element Set (TLE):
1 41567U 98067JR  18109.60081523 +.00079839 +00000-0 +39689-3 0  9991
2 41567 051.6325 252.4137 0004183 284.4883 075.5655 15.81226749107796
Source of the keplerian elements: AFSPC